Location: Richmond
(37.5536°N, 77.4606°W)
Time: 13:32:16
(UTC-04:00)

ISS - Visible Passes

Search period start: 25 May 2015 00:00
Search period end: 04 June 2015 00:00
Orbit: 399 x 404 km, 51.6° (Epoch: 25 May)

Date Brightness Start Highest point End Pass type
(mag) Time Alt. Az. Time Alt. Az. Time Alt. Az.
25 May -0.2 02:37:37 12° NNW 02:37:38 12° NNW 02:39:01 10° N visible
26 May 0.1 01:45:57 12° NNE 01:45:57 12° NNE 01:46:24 10° NNE visible
28 May 0.2 01:34:51 11° N 01:34:51 11° N 01:35:29 10° N visible
28 May -0.2 04:47:52 10° NNW 04:49:43 14° NNE 04:51:37 10° ENE visible
29 May 0.2 00:42:43 11° NNE 00:42:43 11° NNE 00:42:57 10° NNE visible
29 May 0.3 03:55:35 10° N 03:56:09 10° NNE 03:56:47 10° NNE visible
29 May -0.1 23:50:01 11° NNE 23:50:01 11° NNE 23:50:07 10° NNE visible
30 May -0.7 04:37:10 10° NNW 04:39:53 24° NNE 04:42:37 10° E visible
30 May -1.8 21:15:41 10° S 21:17:48 17° SE 21:19:59 10° E visible
30 May -2.1 22:50:53 10° WSW 22:53:59 42° NW 22:57:06 10° NE visible
31 May 0.3 00:30:27 10° NNW 00:31:07 10° NNW 00:31:43 10° N visible
31 May -0.1 03:44:19 10° NNW 03:46:22 16° NNE 03:48:28 10° ENE visible
31 May -3.4 05:19:53 10° NW 05:23:09 80° SW 05:26:24 10° SE visible
31 May -3.4 21:57:25 10° SW 22:00:39 87° NW 22:03:55 10° NE visible
31 May 0.0 23:35:36 10° WNW 23:37:30 14° NNW 23:39:22 10° NNE visible
01 Jun 0.3 02:51:46 10° N 02:52:47 11° NNE 02:53:50 10° NE visible
01 Jun -2.3 04:26:40 10° NW 04:29:50 48° NE 04:33:01 10° ESE visible
01 Jun -3.0 21:04:21 10° SSW 21:07:25 41° SE 21:10:30 10° ENE visible
01 Jun -0.6 22:41:21 10° W 22:43:57 21° NNW 22:46:31 10° NNE visible
02 Jun -1.0 03:33:36 10° NNW 03:36:25 27° NNE 03:39:16 10° E visible
02 Jun -2.5 05:09:56 10° WNW 05:12:50 29° SW 05:15:43 10° SSE visible
02 Jun -1.6 21:47:26 10° WSW 21:50:28 36° NW 21:53:31 10° NE visible
03 Jun -0.3 02:40:40 10° NNW 02:42:54 17° NNE 02:45:10 10° ENE visible
03 Jun -3.5 04:16:22 10° NW 04:19:36 66° SW 04:22:50 10° SE visible
03 Jun -3.1 20:53:52 10° SW 20:57:05 73° NW 21:00:20 10° NE visible
03 Jun 0.0 22:32:18 10° NW 22:34:00 13° NNW 22:35:38 10° N visible
